SCP
0 0 0 0 0 0 0 0 0 0 0 0 0 0 0 0 0 0 0 1 2 2 1 1 1 1 1 1 0 0 0 0 0 0 0 0 0 0 0 0 0 0 0 0 0 0 0 0 0
0 0 0 0 0 0 0 0 0 0 0 0 0 0 0 0 0 0 1 1 2 1 1 1 1 1 1 0 0 0 0 0 0 0 0 0 0 0 0 0 0 0 0 0 0 0 0 0 0
0 0 0 0 0 0 0 0 0 0 0 0 0 0 0 0 0 0 1 1 2 1 1 1 1 1 1 0 0 0 0 0 0 0 0 0 0 0 0 0 0 0 0 0 0 0 0 0 0
0 0 0 0 0 0 0 0 0 0 0 0 0 0 0 0 0 0 1 1 1 1 1 1 1 1 1 0 0 0 0 0 0 0 0 0 0 0 0 0 0 0 0 0 0 0 0 0 0
0 0 0 0 0 0 0 0 0 0 0 0 0 0 0 0 0 0 1 1 2 2 2 1 1 1 1 1 0 0 0 0 0 0 0 0 0 0 0 0 0 0 0 0 0 0 0 0 0
0 0 0 0 0 0 0 0 0 0 0 0 0 0 0 0 0 0 0 1 2 2 2 2 2 2 1 1 1 0 0 0 0 0 0 0 0 0 0 0 0 0 0 0 0 0 0 0 0
0 0 0 0 0 0 0 0 0 0 0 0 0 0 0 0 0 0 0 1 2 2 2 2 2 1 1 1 1 1 1 0 0 0 0 0 0 0 0 0 0 0 0 0 0 0 0 0 0
0 0 0 0 0 0 0 0 0 0 0 0 0 0 0 1 1 1 1 1 2 2 2 2 1 1 1 1 1 1 1 1 0 0 0 0 0 0 0 0 0 0 0 0 0 0 0 0 0
0 0 0 0 0 0 0 0 0 0 0 0 0 0 0 1 1 1 1 1 2 2 2 2 1 1 1 1 1 1 1 1 0 0 0 0 0 0 0 0 0 0 0 0 0 0 0 0 0
0 0 0 0 0 0 0 0 0 0 0 0 0 0 0 1 1 1 1 1 2 2 2 2 2 1 1 1 1 1 1 1 0 0 0 0 0 0 0 0 0 0 0 0 0 0 0 0 0
0 0 0 0 0 0 0 0 0 0 0 0 0 0 0 0 1 1 1 1 1 2 2 2 2 2 2 2 1 1 1 1 0 0 0 0 0 0 0 0 0 0 0 0 0 0 0 0 0
0 0 0 0 0 0 0 0 0 0 0 0 0 0 0 0 0 0 1 1 1 2 2 2 2 3 3 2 2 2 1 1 1 0 0 0 0 0 0 0 0 0 0 0 0 0 0 0 0
0 0 0 0 0 0 0 0 0 0 0 0 0 0 0 0 0 0 0 0 1 1 2 2 3 3 3 3 2 2 2 2 1 1 0 0 0 0 0 0 0 0 0 0 0 0 0 0 0
0 0 0 0 0 0 0 0 0 0 0 0 0 0 0 0 0 0 0 0 0 1 2 2 3 3 3 3 3 3 2 2 2 1 1 1 1 0 0 0 0 0 0 0 0 0 0 0 0
0 0 0 0 0 0 0 0 0 0 0 0 0 0 0 0 0 0 0 0 0 1 2 2 3 3 3 4 4 3 3 3 2 2 2 1 1 1 1 1 0 0 0 0 0 0 0 0 0
0 0 0 0 0 0 0 0 0 0 0 0 0 0 0 0 0 0 0 0 0 0 1 2 3 3 4 5 5 4 3 3 3 2 2 2 2 1 1 1 0 0 0 0 0 0 0 0 0
0 0 0 0 0 0 0 0 0 0 0 0 0 0 0 0 0 0 0 0 0 0 1 2 3 4 4 5 6 5 4 3 3 3 3 2 2 1 1 0 0 0 0 0 0 0 0 0 0
0 0 0 0 0 0 0 0 0 0 0 0 0 0 0 0 0 0 0 0 0 0 0 1 3 4 5 6 7 6 5 4 4 3 3 3 2 1 1 0 0 0 0 0 0 0 0 0 0
0 0 0 0 0 0 0 0 0 0 0 0 0 0 0 0 0 0 0 0 0 0 0 1 2 4 5 7 8 7 5 4 4 3 3 2 1 1 0 0 0 0 0 0 0 0 0 0 0
0 0 0 0 0 0 0 0 0 0 0 0 0 0 0 0 0 0 0 0 0 0 0 0 1 4 6 7 8 7 5 4 3 3 2 1 1 0 0 0 0 0 0 0 0 0 0 0 0
0 0 0 0 0 0 0 0 0 0 0 0 0 0 0 0 0 0 0 0 0 0 0 0 1 3 5 7 7 6 5 4 3 2 1 1 0 0 0 0 0 0 0 0 0 0 0 0 0
0 0 0 0 0 0 0 0 0 0 0 0 0 0 0 0 0 0 0 0 0 0 0 0 1 3 5 6 6 5 4 3 2 1 1 0 0 0 0 0 0 0 0 0 0 0 0 0 0
0 0 0 0 0 0 0 0 0 0 0 0 0 0 0 0 0 0 0 0 0 0 0 0 1 3 5 6 6 5 4 2 1 0 0 0 0 0 0 0 0 0 0 0 0 0 0 0 0
0 0 0 0 0 0 0 0 0 0 0 0 0 0 0 0 0 0 0 0 0 0 0 0 1 3 4 5 5 4 3 2 0 0 0 0 0 0 0 0 0 0 0 0 0 0 0 0 0
0 0 0 0 0 0 0 0 0 0 0 0 0 0 0 0 0 0 0 0 0 0 0 1 2 3 4 4 3 3 3 1 0 0 0 0 0 0 0 0 0 0 0 0 0 0 0 0 0
0 0 0 0 0 0 0 0 0 0 0 0 0 0 0 0 0 0 0 0 0 0 0 1 2 2 3 3 2 2 2 1 0 0 0 0 0 0 0 0 0 0 0 0 0 0 0 0 0
0 0 0 0 0 0 0 0 0 0 0 0 0 0 0 0 0 0 0 0 0 0 1 1 1 2 2 2 2 2 1 0 0 0 0 0 0 0 0 0 0 0 0 0 0 0 0 0 0
0 0 0 0 0 0 0 0 0 0 0 0 0 0 0 0 0 0 0 0 0 1 1 1 1 2 2 2 1 1 0 0 0 0 0 0 0 0 0 0 0 0 0 0 0 0 0 0 0
0 0 0 0 0 0 0 0 0 0 0 0 0 0 0 0 0 0 0 0 0 1 1 1 1 1 1 1 1 0 0 0 0 0 0 0 0 0 0 0 0 0 0 0 0 0 0 0 0
0 0 0 0 0 0 0 0 0 0 0 0 0 0 0 0 0 0 0 0 0 1 1 1 1 1 1 0 0 0 0 0 0 0 0 0 0 0 0 0 0 0 0 0 0 0 0 0 0
Wind_Speed
13 13 9 3 3 5 10 12 9 1 2 4 6 5 8 7 6 7 4 11 18 18 17 16 17 17 16 16 14 13 12 11 11 12 12 12 11 11 10 10 9 10 10 11 12 12 13 14 13
9 11 6 3 4 7 10 13 7 2 3 7 4 2 6 2 8 8 6 12 17 18 16 15 17 17 17 15 14 13 12 11 11 11 12 12 12 11 11 10 10 10 11 12 13 13 13 12 11
9 11 5 4 6 10 11 5 2 5 5 1 4 5 6 3 8 7 8 12 15 16 14 17 18 18 17 15 14 12 11 11 11 11 12 12 12 11 11 11 11 11 11 11 11 11 10 10 9
6 5 4 7 12 13 14 10 2 5 2 4 4 4 3 6 5 9 10 11 14 15 14 17 18 18 17 16 14 13 12 11 12 12 12 11 11 11 11 11 11 10 10 10 10 9 9 8 7
4 4 8 11 15 14 12 8 3 2 3 5 4 6 5 6 10 12 8 10 13 14 16 16 18 19 17 16 15 13 13 12 12 12 11 10 11 11 11 11 10 9 9 8 8 8 7 6 5
4 5 8 12 15 14 13 9 4 3 6 4 2 6 4 8 9 10 8 7 11 14 16 14 17 17 17 16 15 14 13 12 12 11 10 9 9 10 11 11 10 8 8 7 7 6 5 4 4
6 6 11 13 12 12 13 8 7 6 7 6 3 5 4 7 8 9 8 6 11 15 15 13 12 13 15 15 14 13 12 11 11 10 9 8 8 10 11 11 9 8 6 6 5 5 5 4 3
6 5 12 13 14 12 9 6 7 5 6 6 2 2 4 6 7 8 7 6 9 12 15 13 12 11 10 11 13 13 12 11 10 9 9 9 8 10 11 10 8 7 6 5 5 4 4 3 2
6 7 11 11 10 10 10 5 4 3 4 7 2 2 7 6 6 6 5 4 7 9 12 13 13 11 11 10 12 12 11 10 10 8 10 8 6 7 8 9 9 8 7 6 5 3 3 3 3
5 8 12 9 9 8 7 4 2 3 6 8 6 3 7 6 6 7 6 6 6 6 9 12 13 12 11 10 9 7 8 7 7 6 7 5 5 6 8 10 10 9 7 6 5 4 4 4 2
6 7 9 12 11 7 8 7 2 5 6 8 8 7 7 7 6 7 8 9 10 8 7 9 12 12 11 8 8 6 5 6 7 9 9 6 4 5 6 4 5 5 6 4 4 3 1 1 2
10 9 10 10 5 5 6 8 8 7 7 8 6 2 3 5 6 6 6 7 10 13 11 8 9 11 11 9 8 7 6 6 5 6 9 5 4 4 5 4 5 4 3 3 2 1 3 3 3
13 11 10 7 6 5 6 8 10 12 11 10 10 7 4 4 5 5 6 6 6 10 13 11 9 10 10 9 7 7 7 7 6 5 6 6 4 4 4 3 3 3 3 3 2 3 4 3 4
4 7 10 9 6 6 9 11 12 11 10 11 12 11 9 7 8 8 7 7 6 6 11 12 11 9 10 9 7 7 6 6 6 5 6 7 5 4 4 4 4 3 3 3 3 4 3 3 3
5 7 8 10 10 7 8 13 16 17 14 14 13 12 11 10 10 10 10 8 7 6 8 11 13 11 10 10 10 7 6 7 6 6 7 7 6 6 5 4 4 4 4 4 4 4 3 3 2
5 6 6 9 13 12 9 11 9 11 14 16 14 13 12 11 12 12 11 9 8 7 7 9 11 12 11 9 10 7 7 7 6 7 6 8 7 7 6 5 4 5 4 4 3 3 3 3 3
6 6 9 8 9 6 9 9 8 6 5 7 9 10 10 11 12 12 12 11 9 9 8 8 9 10 10 10 8 8 7 7 6 6 6 7 8 8 7 5 5 5 5 4 4 4 3 3 2
5 8 8 7 6 6 9 10 9 10 10 9 9 9 10 11 11 11 11 11 10 10 10 9 10 11 9 8 6 6 6 5 5 6 7 8 7 9 8 6 6 6 5 4 4 4 3 3 2
7 6 7 7 7 6 9 13 12 12 13 14 13 13 13 13 11 10 10 9 9 9 9 9 10 11 9 8 8 8 7 5 4 4 8 9 9 10 9 7 7 6 5 5 5 4 4 3 3
7 8 8 8 6 7 11 18 16 17 19 18 16 15 14 13 12 11 11 10 10 10 9 9 8 10 11 9 8 6 6 4 4 4 6 8 9 10 9 9 7 6 6 6 5 4 3 2 2
7 7 7 8 11 9 11 14 12 13 18 17 16 15 14 14 12 11 11 11 10 11 10 9 9 10 11 11 8 8 6 5 3 4 4 6 8 9 9 9 8 7 6 5 5 4 4 3 2
6 3 5 6 5 5 5 10 7 7 7 9 11 11 11 10 10 9 10 10 10 11 10 9 9 10 11 13 13 15 11 8 6 5 5 7 8 9 9 9 9 8 6 6 5 4 3 3 2
2 5 3 4 5 6 5 8 12 7 10 9 8 8 8 7 7 8 8 8 8 8 9 10 9 10 11 14 16 15 10 7 9 9 10 8 7 8 9 9 8 8 6 7 6 4 4 3 3
1 1 4 4 2 7 7 9 11 4 4 2 2 3 3 3 4 4 5 5 6 6 5 7 9 9 10 13 15 13 13 15 16 14 12 9 7 7 9 9 8 8 7 6 6 5 5 4 3
4 3 2 3 4 9 9 9 11 6 3 2 2 2 2 2 2 3 4 5 5 6 5 5 8 9 10 13 13 12 14 16 18 16 14 13 10 8 9 9 8 7 7 6 5 5 5 4 3
8 5 3 3 4 4 4 9 8 7 6 5 4 3 3 3 3 3 4 5 6 5 5 6 8 8 10 12 11 11 14 11 11 12 12 12 10 9 9 10 9 9 7 6 5 4 3 3 2
7 6 4 3 5 6 8 8 9 8 6 4 4 4 5 4 4 4 4 6 6 5 5 5 8 8 10 11 11 13 13 12 12 12 12 10 10 10 11 11 10 8 7 6 5 3 3 3 2
4 4 3 2 3 6 8 8 6 4 4 4 3 3 4 3 4 5 5 6 5 4 4 4 7 9 10 12 12 12 12 13 13 13 13 13 12 11 12 11 10 8 7 6 4 3 3 1 1
7 4 4 4 4 4 7 7 4 6 6 6 6 5 5 5 6 5 5 4 4 3 2 3 7 10 11 13 13 13 12 13 13 13 13 13 12 13 12 11 9 8 6 5 4 3 3 1 2
9 8 7 4 5 5 6 10 4 3 5 8 10 9 8 7 6 5 5 3 2 2 1 3 8 11 13 14 14 13 13 13 14 14 13 13 13 11 11 10 9 7 6 4 3 2 1 2 2
Wind_Direction
298 282 270 262 248 236 247 254 253 346 338 9 31 356 325 347 45 104 156 114 123 131 137 140 137 135 131 127 124 122 123 125 127 127 123 116 109 102 94 87 82 76 72 67 67 78 85 86 89
287 283 276 243 240 244 247 241 231 178 57 33 8 284 278 296 98 113 120 119 128 132 140 141 138 136 133 129 126 125 126 128 131 131 128 121 113 105 95 91 88 84 81 78 77 77 81 82 82
264 264 258 230 227 240 262 281 129 114 65 11 253 224 242 57 99 116 123 130 131 135 142 137 141 139 135 132 130 129 129 131 132 133 130 125 118 109 100 98 95 92 89 87 86 84 83 83 81
250 227 238 243 244 238 252 278 89 109 164 215 263 245 123 54 67 108 126 138 135 138 134 141 142 141 139 137 135 135 135 135 134 134 133 131 126 116 109 107 104 100 95 92 91 90 87 84 81
242 237 226 235 243 251 260 264 105 148 213 199 211 271 97 87 94 114 142 147 141 137 133 145 145 144 144 143 142 142 143 140 139 139 139 139 133 125 121 119 114 108 101 95 92 90 88 84 76
219 226 228 232 241 242 250 251 157 206 254 232 207 265 108 125 120 133 144 152 142 132 134 146 148 147 149 149 149 150 151 151 150 149 146 145 141 135 132 129 124 117 107 97 93 89 88 84 71
237 232 239 244 247 243 238 221 174 197 248 248 211 254 126 120 119 132 142 165 137 132 137 146 153 154 155 155 155 157 157 158 159 157 145 133 134 142 143 138 133 124 113 102 94 90 90 84 71
247 257 243 244 255 261 263 220 166 195 248 272 276 276 77 107 123 130 145 157 136 138 143 154 159 162 162 161 161 161 161 161 161 152 137 134 139 148 151 145 138 130 120 112 103 96 98 105 110
263 245 241 238 247 261 272 266 161 173 267 285 266 95 97 112 124 124 137 144 140 147 151 160 164 167 166 167 167 163 162 164 160 148 152 155 167 161 157 145 141 139 135 128 124 129 152 163 182
220 241 240 254 270 285 286 285 177 201 217 253 258 165 127 139 155 157 163 167 155 164 163 164 168 170 169 170 163 168 168 167 174 169 171 192 197 157 141 142 147 150 148 145 159 181 214 213 185
211 237 256 262 278 317 330 329 304 266 243 232 229 203 160 159 182 189 186 183 176 180 185 173 172 171 172 166 165 172 173 170 193 179 179 197 165 129 134 148 149 159 163 171 182 196 217 90 94
242 242 248 265 308 337 317 314 304 274 261 278 293 312 158 172 200 212 217 205 182 177 182 186 177 171 174 169 172 171 173 172 187 177 175 181 152 156 162 163 169 170 164 152 145 131 97 57 55
236 257 269 279 303 307 296 285 290 284 285 289 295 295 273 246 250 242 231 237 211 181 175 182 184 177 176 172 174 175 174 174 176 170 171 162 151 165 155 143 139 133 129 127 105 81 74 50 40
260 263 268 271 268 269 263 261 256 258 266 270 272 271 265 255 253 259 249 232 231 200 176 174 180 185 177 175 174 177 176 171 170 166 173 163 158 163 143 135 123 111 103 102 98 88 81 64 47
316 298 283 261 244 237 250 252 241 244 246 251 251 251 251 248 246 246 244 230 222 215 187 175 177 183 183 180 177 178 175 171 169 167 176 168 158 150 140 131 124 120 114 101 89 84 78 68 31
224 244 250 237 215 216 220 255 254 241 225 232 239 243 244 240 237 238 239 230 221 220 207 187 177 180 184 183 177 174 176 172 172 168 172 168 157 145 135 127 125 119 106 98 90 79 79 66 31
208 228 235 238 179 193 213 253 260 269 253 240 236 236 238 239 234 232 232 228 218 212 209 194 175 176 181 179 171 167 172 173 171 167 165 163 154 140 128 124 123 114 102 99 94 64 70 65 21
203 220 237 235 169 201 240 257 266 279 277 261 253 251 247 242 238 234 231 229 224 216 208 194 179 176 175 168 160 158 170 175 169 163 159 154 141 130 124 126 123 114 110 106 105 106 78 62 359
311 312 301 304 325 310 275 273 269 265 261 255 248 244 246 248 246 242 239 237 231 222 213 202 186 178 172 169 170 170 173 165 154 149 146 138 133 130 131 129 124 124 126 131 130 119 103 55 1
269 281 284 293 304 304 287 279 270 255 249 245 246 244 242 244 244 241 237 235 236 230 216 208 192 181 176 175 171 161 138 120 105 106 115 124 129 133 135 133 131 127 121 112 109 108 110 81 37
245 255 272 293 323 298 280 282 256 246 233 233 236 240 242 243 243 242 238 233 230 231 223 212 201 188 177 163 146 124 105 93 98 107 110 120 126 128 132 131 128 124 120 120 114 111 115 130 83
247 256 272 291 295 290 314 296 277 273 264 231 221 223 232 239 241 242 244 242 232 225 221 215 202 192 176 162 158 160 166 160 159 138 123 117 120 128 129 128 126 121 118 117 115 109 112 116 123
233 42 345 297 292 294 255 260 274 231 245 237 220 213 220 231 238 243 242 242 244 232 218 209 201 192 176 166 164 168 164 136 128 127 128 125 125 125 126 125 123 121 118 114 111 106 97 103 109
148 72 264 250 284 268 222 221 274 242 241 249 218 209 221 238 257 269 274 266 255 249 233 208 193 185 170 162 163 166 157 145 144 145 143 138 134 127 125 124 121 118 117 118 120 115 97 93 93
179 188 224 199 219 249 232 228 253 258 298 302 277 287 302 303 303 311 310 301 277 253 233 216 189 175 163 158 161 163 153 152 154 152 149 146 145 142 137 130 122 118 117 117 113 108 107 103 102
188 204 222 245 260 288 255 243 255 238 235 220 213 225 263 283 298 301 302 300 284 260 226 211 185 168 157 156 157 151 145 148 150 150 150 149 147 143 136 129 123 122 122 121 116 117 128 128 157
171 216 294 336 307 282 258 266 283 250 241 226 212 220 239 249 269 281 289 295 285 264 227 205 177 161 153 149 144 142 142 144 146 144 142 138 137 138 131 126 126 126 124 123 127 132 148 156 188
223 180 176 180 258 275 272 257 254 344 0 360 333 292 276 281 285 284 288 294 286 271 243 198 170 154 144 141 138 137 137 137 139 138 138 137 137 133 130 127 126 125 123 128 134 137 129 132 212
198 199 198 216 250 267 286 269 332 2 359 344 324 307 299 301 296 289 283 287 297 288 249 188 154 139 134 130 127 129 130 132 132 133 133 133 132 132 129 128 127 126 127 131 133 140 144 194 265
194 197 188 203 233 229 266 271 296 332 350 339 325 317 307 290 280 278 280 277 284 281 211 153 137 128 124 122 123 125 127 129 129 129 128 129 128 125 124 124 123 123 122 120 124 130 149 238 267